Tracking 25620 objects as of 18-May-2022
HD Live streaming from Space Station
objects crossing your sky now

JIADING 1

Track JIADING 1 now!
10-day predictions


NORAD ID: 43713
Int'l Code: 2018-094D
Perigee: 481.6 km
Apogee: 502.8 km
Inclination: 97.4 °
Period: 94.3 minutes
Semi major axis: 6863 km
RCS: Unknown
Launch date: November 19, 2018
Source: People's Republic of China (PRC)
Launch site: Jiuquan Satellite Launch Center, China (JSC)
aabbcc
Your satellite tracking list
Your tracking list is empty




NASA's NSSDC Master Catalog

Two Line Element Set (TLE):
1 43713U 18094D   22138.49096477  .00007890  00000-0  30031-3 0  9996
2 43713  97.3967 149.1192 0015498  99.7451  53.8070 15.26904873194293
Source of the keplerian elements: AFSPC